T7IVE ZSAM-WIII

Flight info

Callsign T7IVE
Flight time N/A
Altitude 38100
Route NUSPA9Z NUSPA W597 IKATA A470 BEBEM/N0456F381 A470 DOTMI/N0454F380 DCT ENROM DCT SULUX DCT EPKAL/K0841F390 L642 CN/K0835F400 L642 ESPOB/N0451F400 L642 ENREP N891 PU DCT SJ/N0454F390 B470 BUNIK
Aircraft B737/M-SDE2E3FGHIRWXY/LB1

Departure

Time 2026-05-08 07:03
Airport Xiamen Gaoqi International Airport (ZSAM)

Arrival

Time N/A
Airport Soekarno-Hatta International Airport (WIII)
Time Latitude Longitude Altitude Speed Heading
2026-05-08 06:43 24.53430 118.11950 62 ft 0 kts 182°
2026-05-08 06:56 24.53431 118.11950 62 ft 1 kts 182°
2026-05-08 06:56 24.53455 118.11952 62 ft 4 kts 186°
2026-05-08 06:57 24.53482 118.11956 55 ft 4 kts 191°
2026-05-08 06:57 24.53508 118.11963 61 ft 4 kts 197°
2026-05-08 06:57 24.53534 118.11972 54 ft 4 kts 205°
2026-05-08 06:57 24.53557 118.11987 55 ft 4 kts 223°
2026-05-08 06:58 24.53563 118.11994 61 ft 0 kts 231°
2026-05-08 07:00 24.53558 118.11986 57 ft 4 kts 231°
2026-05-08 07:00 24.53522 118.11936 59 ft 12 kts 232°
2026-05-08 07:00 24.53464 118.11855 59 ft 14 kts 232°
2026-05-08 07:01 24.53407 118.11775 57 ft 13 kts 231°
2026-05-08 07:01 24.53375 118.11689 63 ft 13 kts 276°
2026-05-08 07:01 24.53396 118.11596 61 ft 12 kts 285°
2026-05-08 07:01 24.53422 118.11508 62 ft 12 kts 301°
2026-05-08 07:02 24.53491 118.11483 59 ft 12 kts 38°
2026-05-08 07:02 24.53536 118.11542 63 ft 10 kts 51°
2026-05-08 07:02 24.53551 118.11563 63 ft 0 kts 51°
2026-05-08 07:02 24.53552 118.11565 63 ft 1 kts 51°
2026-05-08 07:03 24.53622 118.11662 60 ft 47 kts 52°
2026-05-08 07:03 24.53977 118.12159 54 ft 115 kts 52°
2026-05-08 07:03 24.54576 118.13002 132 ft 160 kts 53°
2026-05-08 07:03 24.55270 118.13986 811 ft 162 kts 53°
2026-05-08 07:04 24.55920 118.14947 1676 ft 157 kts 55°
2026-05-08 07:04 24.56634 118.15992 2054 ft 183 kts 52°
2026-05-08 07:04 24.57441 118.17115 2649 ft 190 kts 50°
2026-05-08 07:04 24.58293 118.18243 3320 ft 193 kts 49°
2026-05-08 07:05 24.59175 118.19439 3810 ft 213 kts 52°
2026-05-08 07:05 24.60120 118.20766 4309 ft 227 kts 52°
2026-05-08 07:05 24.61105 118.22141 5230 ft 220 kts 52°
2026-05-08 07:05 24.61933 118.23558 5979 ft 227 kts 68°
2026-05-08 07:06 24.62214 118.25310 6739 ft 232 kts 95°
2026-05-08 07:06 24.61764 118.26950 7644 ft 232 kts 120°
2026-05-08 07:06 24.60669 118.28313 8285 ft 244 kts 146°
2026-05-08 07:06 24.59121 118.29034 9138 ft 244 kts 172°
2026-05-08 07:07 24.57427 118.28957 9856 ft 250 kts 199°
2026-05-08 07:07 24.55980 118.27927 10492 ft 256 kts 232°
2026-05-08 07:07 24.54906 118.26334 11237 ft 261 kts 235°
2026-05-08 07:07 24.53831 118.24764 12328 ft 252 kts 233°
2026-05-08 07:08 24.52778 118.23298 13545 ft 238 kts 233°
2026-05-08 07:08 24.51750 118.21878 14431 ft 239 kts 234°
2026-05-08 07:08 24.50707 118.20429 15093 ft 248 kts 234°
2026-05-08 07:08 24.49592 118.18855 15354 ft 276 kts 234°
2026-05-08 07:09 24.48349 118.17099 15572 ft 302 kts 234°
2026-05-08 07:09 24.47009 118.15207 15772 ft 328 kts 234°
2026-05-08 07:09 24.45555 118.13155 15945 ft 352 kts 234°
2026-05-08 07:09 24.44004 118.10971 16180 ft 371 kts 234°
2026-05-08 07:10 24.42401 118.08716 16772 ft 378 kts 233°
2026-05-08 07:10 24.40779 118.06436 17519 ft 380 kts 234°
2026-05-08 07:10 24.39144 118.04137 18236 ft 383 kts 234°
2026-05-08 07:10 24.37497 118.01818 18883 ft 388 kts 234°
2026-05-08 07:11 24.35825 117.99469 19533 ft 392 kts 234°
2026-05-08 07:11 24.34140 117.97104 20107 ft 395 kts 234°
2026-05-08 07:11 24.32439 117.94719 20721 ft 398 kts 234°
2026-05-08 07:11 24.30727 117.92317 21296 ft 402 kts 234°
2026-05-08 07:12 24.29000 117.89894 21801 ft 406 kts 234°
2026-05-08 07:12 24.27268 117.87466 22275 ft 410 kts 234°
2026-05-08 07:12 24.25499 117.84987 22701 ft 415 kts 234°
2026-05-08 07:12 24.23638 117.82543 23105 ft 421 kts 229°
2026-05-08 07:13 24.21563 117.80249 23558 ft 425 kts 226°
2026-05-08 07:13 24.19408 117.78015 23978 ft 428 kts 225°
2026-05-08 07:13 24.17233 117.75782 24326 ft 431 kts 226°
2026-05-08 07:13 24.15059 117.73518 24749 ft 432 kts 226°
2026-05-08 07:14 24.12891 117.71227 25173 ft 434 kts 227°
2026-05-08 07:14 24.10727 117.68916 25577 ft 436 kts 227°
2026-05-08 07:14 24.08556 117.66588 25976 ft 437 kts 227°
2026-05-08 07:14 24.06375 117.64252 26361 ft 439 kts 227°
2026-05-08 07:15 24.04186 117.61912 26687 ft 441 kts 227°
2026-05-08 07:15 24.01984 117.59558 27036 ft 444 kts 228°
2026-05-08 07:15 23.99778 117.57190 27439 ft 445 kts 228°
2026-05-08 07:15 23.97564 117.54811 27771 ft 448 kts 228°
2026-05-08 07:16 23.95337 117.52422 28060 ft 450 kts 228°
2026-05-08 07:16 23.93096 117.50021 28366 ft 451 kts 228°
2026-05-08 07:16 23.90851 117.47617 28686 ft 453 kts 228°
2026-05-08 07:16 23.88600 117.45210 28994 ft 454 kts 228°
2026-05-08 07:17 23.86407 117.42718 29257 ft 454 kts 234°
2026-05-08 07:17 23.84596 117.39914 29551 ft 451 kts 242°
2026-05-08 07:17 23.83133 117.36890 29862 ft 449 kts 249°
2026-05-08 07:17 23.82081 117.33679 30138 ft 448 kts 255°
2026-05-08 07:18 23.81193 117.30423 30442 ft 448 kts 256°
2026-05-08 07:18 23.80321 117.27161 30858 ft 446 kts 256°
2026-05-08 07:18 23.79445 117.23967 31294 ft 444 kts 256°
2026-05-08 07:18 23.78526 117.20705 31753 ft 442 kts 255°
2026-05-08 07:19 23.77601 117.17559 32206 ft 442 kts 252°
2026-05-08 07:19 23.76283 117.14476 32602 ft 445 kts 244°
2026-05-08 07:19 23.74627 117.11621 33049 ft 446 kts 238°
2026-05-08 07:19 23.72620 117.09027 33500 ft 449 kts 231°
2026-05-08 07:20 23.70487 117.06611 33924 ft 448 kts 231°
2026-05-08 07:20 23.68306 117.04182 34269 ft 448 kts 231°
2026-05-08 07:20 23.66129 117.01754 34581 ft 448 kts 231°
2026-05-08 07:20 23.63953 116.99314 34873 ft 449 kts 231°
2026-05-08 07:21 23.61782 116.96866 35201 ft 446 kts 231°
2026-05-08 07:21 23.59628 116.94426 35448 ft 447 kts 231°
2026-05-08 07:21 23.57470 116.91975 35722 ft 448 kts 231°
2026-05-08 07:21 23.55316 116.89528 36055 ft 446 kts 231°
2026-05-08 07:22 23.53168 116.87086 36324 ft 446 kts 231°
2026-05-08 07:22 23.51016 116.84645 36530 ft 448 kts 231°
2026-05-08 07:22 23.48856 116.82199 36777 ft 447 kts 231°
2026-05-08 07:22 23.46706 116.79765 37096 ft 445 kts 231°
2026-05-08 07:23 23.44559 116.77344 37470 ft 442 kts 230°
2026-05-08 07:23 23.42258 116.75118 37762 ft 445 kts 224°
2026-05-08 07:23 23.39803 116.73063 37952 ft 446 kts 223°
2026-05-08 07:23 23.37303 116.71024 37933 ft 451 kts 222°
2026-05-08 07:24 23.32301 116.66939 37936 ft 448 kts 223°
2026-05-08 07:24 23.27341 116.62858 37928 ft 446 kts 223°
2026-05-08 07:25 23.22426 116.58792 37928 ft 443 kts 223°
2026-05-08 07:26 23.15126 116.52742 37934 ft 441 kts 223°
2026-05-08 07:26 23.10201 116.48657 37948 ft 450 kts 223°
2026-05-08 07:27 23.05190 116.44515 37948 ft 453 kts 223°
2026-05-08 07:27 23.00151 116.40355 37953 ft 456 kts 223°
2026-05-08 07:28 22.95094 116.36178 37946 ft 457 kts 223°
2026-05-08 07:28 22.90050 116.31985 37938 ft 457 kts 223°
2026-05-08 07:29 22.85018 116.27791 37941 ft 456 kts 223°
2026-05-08 07:29 22.79997 116.23612 37942 ft 454 kts 223°
2026-05-08 07:30 22.74961 116.19462 37934 ft 456 kts 219°
2026-05-08 07:30 22.72128 116.17856 37937 ft 466 kts 205°
2026-05-08 07:30 22.68973 116.16940 37931 ft 474 kts 192°
2026-05-08 07:31 22.62353 116.16868 37936 ft 481 kts 182°
2026-05-08 07:31 22.55661 116.17175 37931 ft 482 kts 181°
2026-05-08 07:32 22.48937 116.17433 37937 ft 484 kts 182°
2026-05-08 07:32 22.42211 116.17633 37932 ft 484 kts 182°
2026-05-08 07:33 22.35457 116.17816 37937 ft 485 kts 182°
2026-05-08 07:33 22.28691 116.18000 37938 ft 487 kts 182°
2026-05-08 07:34 22.21902 116.18185 37935 ft 488 kts 182°
2026-05-08 07:34 22.15105 116.18370 37939 ft 489 kts 182°
2026-05-08 07:35 22.08289 116.18561 37935 ft 490 kts 182°
2026-05-08 07:35 22.01504 116.18746 37936 ft 490 kts 182°
2026-05-08 07:36 21.94678 116.18935 37935 ft 491 kts 182°
2026-05-08 07:36 21.87855 116.19125 37932 ft 489 kts 182°
2026-05-08 07:37 21.81054 116.19312 37936 ft 488 kts 182°
2026-05-08 07:37 21.74261 116.19494 37938 ft 488 kts 182°
2026-05-08 07:38 21.67457 116.19680 37930 ft 488 kts 182°
2026-05-08 07:38 21.60722 116.19851 37937 ft 486 kts 185°
2026-05-08 07:38 21.57391 116.19470 37931 ft 479 kts 197°
2026-05-08 07:39 21.54213 116.18517 37938 ft 473 kts 205°
2026-05-08 07:39 21.51224 116.17076 37927 ft 466 kts 216°
2026-05-08 07:39 21.48467 116.15270 37951 ft 464 kts 217°
2026-05-08 07:40 21.42995 116.11578 37937 ft 465 kts 217°
2026-05-08 07:40 21.37501 116.07904 37931 ft 466 kts 217°
2026-05-08 07:41 21.31977 116.04255 37934 ft 466 kts 216°
2026-05-08 07:41 21.26438 116.00617 37939 ft 467 kts 216°
2026-05-08 07:42 21.20887 115.96977 37936 ft 468 kts 216°
2026-05-08 07:42 21.16259 115.93945 37935 ft 469 kts 216°
2026-05-08 07:43 21.10695 115.90301 37936 ft 469 kts 216°
2026-05-08 07:43 21.05124 115.86656 37936 ft 469 kts 216°
2026-05-08 07:44 20.99537 115.83003 37934 ft 470 kts 216°
2026-05-08 07:44 20.93962 115.79362 37921 ft 469 kts 216°
2026-05-08 07:45 20.88381 115.75724 37928 ft 469 kts 216°
2026-05-08 07:45 20.82807 115.72084 37923 ft 469 kts 216°
2026-05-08 07:46 20.77267 115.68472 37927 ft 469 kts 216°
2026-05-08 07:46 20.71690 115.64840 37929 ft 470 kts 215°
2026-05-08 07:47 20.66110 115.61212 37923 ft 469 kts 215°
2026-05-08 07:47 20.60536 115.57590 37927 ft 469 kts 215°
2026-05-08 07:48 20.54957 115.53967 37930 ft 469 kts 215°
2026-05-08 07:48 20.49369 115.50341 37925 ft 470 kts 215°
2026-05-08 07:49 20.43779 115.46716 37928 ft 471 kts 215°
2026-05-08 07:49 20.38184 115.43092 37924 ft 470 kts 215°
2026-05-08 07:50 20.32849 115.39122 37922 ft 464 kts 227°
2026-05-08 07:50 20.28177 115.34397 37929 ft 463 kts 228°
2026-05-08 07:51 20.23576 115.29676 37923 ft 463 kts 228°
2026-05-08 07:51 20.18920 115.24940 37931 ft 463 kts 227°
2026-05-08 07:52 20.14237 115.20225 37925 ft 464 kts 227°
2026-05-08 07:52 20.09536 115.15513 37929 ft 464 kts 227°
2026-05-08 07:53 20.04827 115.10795 37931 ft 464 kts 227°
2026-05-08 07:53 20.00132 115.06089 37918 ft 464 kts 227°
2026-05-08 07:54 19.95428 115.01391 37921 ft 464 kts 227°
2026-05-08 07:54 19.90719 114.96683 37930 ft 465 kts 227°
2026-05-08 07:55 19.86034 114.91999 37927 ft 465 kts 227°
2026-05-08 07:55 19.81318 114.87290 37928 ft 466 kts 227°
2026-05-08 07:56 19.76587 114.82572 37928 ft 467 kts 227°
2026-05-08 07:56 19.71840 114.77839 37929 ft 468 kts 227°
2026-05-08 07:57 19.67090 114.73110 37926 ft 468 kts 227°
2026-05-08 07:57 19.62342 114.68389 37926 ft 468 kts 227°
2026-05-08 07:58 19.57584 114.63661 37924 ft 468 kts 227°
2026-05-08 07:58 19.52834 114.58943 37927 ft 468 kts 226°
2026-05-08 07:59 19.48086 114.54234 37928 ft 467 kts 227°
2026-05-08 07:59 19.43346 114.49537 37918 ft 466 kts 226°
2026-05-08 08:00 19.38614 114.44850 37930 ft 466 kts 226°
2026-05-08 08:00 19.33874 114.40158 37921 ft 466 kts 226°
2026-05-08 08:01 19.29168 114.35504 37920 ft 466 kts 226°
2026-05-08 08:01 19.24423 114.30822 37928 ft 467 kts 226°
2026-05-08 08:02 19.19674 114.26130 37928 ft 467 kts 226°
2026-05-08 08:02 19.14919 114.21442 37923 ft 467 kts 226°
2026-05-08 08:03 19.10480 114.17061 37923 ft 467 kts 226°
2026-05-08 08:03 19.05730 114.12382 37927 ft 467 kts 226°
2026-05-08 08:04 19.00969 114.07696 37931 ft 468 kts 226°
2026-05-08 08:04 18.96199 114.03006 37927 ft 468 kts 226°
2026-05-08 08:05 18.91429 113.98321 37924 ft 468 kts 226°
2026-05-08 08:05 18.86654 113.93635 37929 ft 468 kts 225°
2026-05-08 08:06 18.81877 113.88953 37926 ft 469 kts 225°
2026-05-08 08:06 18.77100 113.84273 37922 ft 468 kts 225°
2026-05-08 08:07 18.72330 113.79600 37925 ft 468 kts 225°
2026-05-08 08:07 18.67554 113.74924 37928 ft 468 kts 225°
2026-05-08 08:08 18.62814 113.70284 37932 ft 468 kts 225°
2026-05-08 08:08 18.58028 113.65614 37919 ft 469 kts 225°
2026-05-08 08:09 18.53242 113.60943 37914 ft 469 kts 225°
2026-05-08 08:09 18.48448 113.56270 37917 ft 469 kts 225°
2026-05-08 08:10 18.43659 113.51602 37910 ft 470 kts 225°
2026-05-08 08:10 18.38858 113.46929 37910 ft 470 kts 225°
2026-05-08 08:11 18.34057 113.42261 37907 ft 469 kts 225°
2026-05-08 08:11 18.29260 113.37596 37901 ft 470 kts 225°
2026-05-08 08:12 18.24461 113.32933 37896 ft 469 kts 225°
2026-05-08 08:12 18.19666 113.28279 37900 ft 468 kts 225°
2026-05-08 08:13 18.14878 113.23633 37897 ft 467 kts 225°
2026-05-08 08:13 18.10123 113.19024 37897 ft 467 kts 225°
2026-05-08 08:14 18.05344 113.14394 37901 ft 467 kts 225°
2026-05-08 08:14 18.00564 113.09768 37898 ft 467 kts 225°
2026-05-08 08:15 17.95785 113.05149 37896 ft 467 kts 224°
2026-05-08 08:15 17.90998 113.00522 37899 ft 468 kts 224°
2026-05-08 08:16 17.86201 112.95893 37894 ft 468 kts 223°
2026-05-08 08:16 17.81086 112.91643 37896 ft 470 kts 218°
2026-05-08 08:17 17.75815 112.87569 37901 ft 471 kts 217°
2026-05-08 08:17 17.70548 112.83491 37893 ft 471 kts 217°